Resia Pass, Italy

10:01 AM CET on February 23, 2018 (GMT +0100)
Resia Pass

Weather History for LIVE - July, 2013

Change the Weather History Date:

Tuesday, July 30, 2013

  Actual Average Record
Temperature  
Mean Temperature 59 °F -  
Max Temperature 68 °F 68 °F 80 °F (2006)
Min Temperature 50 °F 49 °F 44 °F (2000)
Degree Days  
Heating Degree Days 6    
Growing Degree Days 9 (Base 50)    
Moisture  
Dew Point 39 °F    
Average Humidity 53    
Maximum Humidity 82    
Minimum Humidity 26    
Precipitation  
Precipitation 0.00 in - - ()
Sea Level Pressure  
Sea Level Pressure 30.26 in    
Wind  
Wind Speed 4 mph ()    
Max Wind Speed 8 mph    
Max Gust Speed 21 mph    
Visibility 6.2 miles    
Events      
Averages and records for this station are not official NWS values.
T = Trace of Precipitation, MM = Missing Value Source: Averaged Metar Reports

Daily Weather History Graph

Daily Weather History Graph

Search for Another Location

Airport or City:

Trip Planner

Search our weather history database for the weather conditions in past years. The results will help you decide how hot, cold, wet, or windy it might be!

Date:

Astronomy

Jul. 30, 2013 Rise Set
Actual Time 5:55 AM CEST 8:52 PM CEST
Civil Twilight 5:19 AM CEST 9:28 PM CEST
Nautical Twilight 4:34 AM CEST 10:13 PM CEST
Astronomical Twilight 3:38 AM CEST 11:08 PM CEST
Moon 12:07 AM CEST (7/30) 2:54 PM CEST (7/30)
Length of Visible Light 16h 08m
Length of Day
14h 57m
Last Quarter, 43% of the Moon is Illuminated
Jul 30
Last Quarter
Aug 6
New
Aug 14
First Quarter
Aug 21
Full
Aug 28
Last Quarter

Hourly Weather History & Observations

Time (CEST) Temp. Dew Point Humidity Pressure Visibility Wind Dir Wind Speed Gust Speed Precip Events Conditions
12:55 AM 51.8 °F 44.6 °F 76% 30.21 in 6.2 mi NE 6.9 mph - N/A   Scattered Clouds
1:55 AM 51.8 °F 44.6 °F 76% 30.21 in 6.2 mi NE 4.6 mph - N/A   Scattered Clouds
3:55 AM 50.0 °F 44.6 °F 82% 30.24 in - NNE 5.8 mph - N/A   Clear
4:55 AM 50.0 °F 44.6 °F 82% 30.27 in - NNE 5.8 mph - N/A   Clear
6:55 AM 50.0 °F 44.6 °F 82% 30.27 in 6.2 mi NNE 4.6 mph - N/A   Mostly Cloudy
7:55 AM 50.0 °F 42.8 °F 76% 30.27 in 6.2 mi North 4.6 mph - N/A   Mostly Cloudy
8:55 AM 51.8 °F 42.8 °F 71% 30.27 in 6.2 mi North 4.6 mph - N/A   Mostly Cloudy
9:55 AM 53.6 °F 42.8 °F 67% 30.27 in 6.2 mi North 4.6 mph - N/A   Mostly Cloudy
10:55 AM 55.4 °F 41.0 °F 58% 30.27 in 6.2 mi North 5.8 mph - N/A   Mostly Cloudy
11:55 AM 62.6 °F 33.8 °F 34% 30.27 in 6.2 mi NE 5.8 mph - N/A   Mostly Cloudy
12:55 PM 62.6 °F 35.6 °F 37% 30.27 in 6.2 mi North 6.9 mph 20.7 mph N/A   Mostly Cloudy
1:55 PM 66.2 °F 33.8 °F 30% 30.27 in 6.2 mi North 8.1 mph 19.6 mph N/A   Mostly Cloudy
2:55 PM 66.2 °F 30.2 °F 26% 30.27 in 6.2 mi NNE 6.9 mph - N/A   Scattered Clouds
3:55 PM 66.2 °F 33.8 °F 30% 30.24 in 6.2 mi North 5.8 mph - N/A   Scattered Clouds
4:55 PM 68.0 °F 32.0 °F 26% 30.24 in 6.2 mi North 6.9 mph - N/A   Scattered Clouds
5:55 PM 68.0 °F 33.8 °F 28% 30.24 in 6.2 mi Calm Calm - N/A   Partly Cloudy
6:55 PM 64.4 °F 35.6 °F 34% 30.24 in 6.2 mi Calm Calm - N/A   Partly Cloudy
7:55 PM 62.6 °F 37.4 °F 39% 30.27 in 6.2 mi Calm Calm - N/A   Partly Cloudy
8:55 PM 59.0 °F 37.4 °F 45% 30.27 in - North 3.5 mph - N/A   Clear
9:55 PM 59.0 °F 39.2 °F 48% 30.30 in - NNE 4.6 mph - N/A   Clear
10:55 PM 57.2 °F 41.0 °F 55% 30.30 in - NNE 5.8 mph - N/A   Clear
11:55 PM 55.4 °F 42.8 °F 63% 30.30 in - Calm Calm - N/A   Clear